{"data":{"norad_id":53742,"epoch":"2026-05-24T19:04:14.849184Z","epoch_age_seconds":92704,"freshness":"FRESH","line1":"1 53742U 22107AU  26144.79461631  .00000412  00000+0  43959-4 0  9997","line2":"2 53742  53.2156 282.4017 0001247  94.2129 265.9005 15.08839971206084","mean_motion":15.08839971,"eccentricity":0.0001247,"inclination_deg":53.2156,"raan_deg":282.4017,"arg_perigee_deg":94.2129,"mean_anomaly_deg":265.9005,"bstar":4.3959e-5,"rev_number":20608,"period_min":95.437556512082,"perigee_km":538.88081790995,"apogee_km":540.60613730106,"semimajor_km":6917.8804776055,"source":"CELESTRAK","updated_at":"2026-05-25T13:38:17.539356Z"}}